Overview Statistics Trail Chart Weather Telemetry Raw packets
 

This is the latest recevied weather packets stored in our database for station/object N0KWA. If no packets are shown the sender has not sent any weather packets the latest 10 day(s).

<< 78 79 80 81 82 83 84 >>
Time Temp. Humidity Pressure Rain* Wind** Luminosity Snow
1787861954 28.89° C 80% 1016.5 hPa 0 mm - 29 W/m² -
1787861653 28.89° C 81% 1016.4 hPa 0 mm - 330 W/m² -
1787861351 28.89° C 81% 1016.3 hPa 0 mm - 43 W/m² -
1787861046 28.89° C 81% 1016.6 hPa 0 mm - 215 W/m² -
1787860745 28.89° C 82% 1016.7 hPa 0 mm - 68 W/m² -
1787860441 28.89° C 79% 1016.9 hPa 0 mm - 51 W/m² -
1787860135 28.89° C 78% 1016.9 hPa 0 mm - 58 W/m² -
1787859830 28.89° C 80% 1016.9 hPa 0 mm - 62 W/m² -
1787859525 28.33° C 81% 1016.7 hPa 0 mm - 58 W/m² -
1787859220 28.33° C 83% 1016.8 hPa 0 mm - 35 W/m² -
1787858917 28.33° C 82% 1016.9 hPa 0 mm - 46 W/m² -
1787858612 28.33° C 79% 1016.9 hPa 0 mm - 34 W/m² -
1787858307 28.89° C 80% 1017.1 hPa 0 mm - 53 W/m² -
1787858002 28.33° C 78% 1017.2 hPa 0 mm - 46 W/m² -
1787857698 28.89° C 78% 1017 hPa 0 mm - 49 W/m² -
1787857393 28.89° C 77% 1017.1 hPa 0 mm - 45 W/m² -
1787857090 28.89° C 79% 1017 hPa 0 mm - 37 W/m² -
1787856786 28.33° C 81% 1017 hPa 0 mm - 37 W/m² -
1787856480 28.33° C 82% 1017.2 hPa 0 mm - 108 W/m² -
1787856176 27.78° C 82% 1016.9 hPa 0 mm - 479 W/m² -
1787855870 27.78° C 85% 1017.2 hPa 0 mm - 147 W/m² -
1787855565 27.78° C 86% 1017 hPa 0 mm - 54 W/m² -
1787855260 27.22° C 89% 1017.1 hPa 0 mm - 33 W/m² -
1787854956 26.67° C 87% 1017.1 hPa 0 mm - 32 W/m² -
1787854651 26.67° C 89% 1017 hPa 0 mm - 409 W/m² -

* Rain latest hour (hover to see other rain measurements)
** Current wind speed in m/s (hover to see current wind gust speed)